星链-2673 (STARLINK-2673 )

导读 | 星芒AI

STARLINK-2673 是 SpaceX Starlink 项目中的第 2673 颗卫星,属于其低轨卫星互联网星座的一部分。该卫星于 2023 年发射,运行在约 550 公里的近地轨道,旨在为全球用户提供高速互联网服务。Starlink 卫星采用先进推进系统和激光通信技术,以提升网络效率并减少延迟。STARLINK-2673 的部署有助于扩大 Starlink 在偏远和网络覆盖不足地区的服务范围,支持通信、应急响应和商业应用。该卫星设计寿命约 5 至 7 年,任务结束后将主动脱离轨道并再入大气层销毁。

基本信息
目录编号:
48649
目录名称:
STARLINK-2673
国际标识:
2021-044M
轨道中心:
EARTH
卫星名称:
星链-2673
卫星全名:
星链-2673 (STARLINK-2673 )
卫星状态:
在轨 (已飞行1667 天)
发射日期:
2021-05-26 UTC
国别 :
美国 (US)
星等 :
--
轨道信息
数据来源 国际轨道数据
星历时间: 2025-12-18T03:44:03+0800
15小时前
查看轨道信息
半长轴: 6925.348km
偏心率: 0.0001228
轨道倾角: 53.055°
近地点辐角 86.058°
升交点赤经 129.136°
平近点角 274.055°
近地点: 546.362km
远地点: 548.064km
周期: 95.592分钟
每日圈数: 15.064004
详细信息
固有亮度:
5
最大亮度:
2.5
卫星平台:
Starlink V1.0
覆盖范围:
全球
运营商:
太空探索技术公司
运营商所在国:
美国
制造商(研发单位):
太空探索技术公司
制造商所在国:
美国
使用方式:
暂无
卫星简介
星链(Starlink)计划是由太空探索技术公司(SpaceX)提出的一个巨型低轨卫星互联网星座项目,计划在2019年至2024年间在太空搭建由约1.2万颗卫星组成的“星链”网络,其中1584颗将部署在地球上空550千米处的近地轨道,并从2020年开始工作。该卫星仍在工作。
2D轨道图
3D轨道图
轨道高度分析图
轨道倾角分析图
轨道综合分析图
查看轨道综合分析图